Previsão horária em Alos de Balaguer

Hoje, 28 Janeiro, Quinta-feira

Tempo Temperatura Precipitação Vento Pressão Humidade
00:00 +10°C° 0 mm 1 m/s 728 mmHg 87%
01:00 +10°C° 0 mm 1 m/s 728 mmHg 88%
02:00 +9°C° 0 mm 1 m/s 727 mmHg 89%
03:00 +9°C° 0 mm 1 m/s 727 mmHg 90%
04:00 +9°C° 0 mm 1 m/s 727 mmHg 89%
05:00 +9°C° 0 mm 1 m/s 727 mmHg 89%
06:00 +9°C° 0 mm 1 m/s 727 mmHg 87%
07:00 +10°C° 0 mm 1 m/s 727 mmHg 84%
08:00 +11°C° 0 mm 1 m/s 727 mmHg 80%
09:00 +11°C° 0 mm 1 m/s 727 mmHg 76%
10:00 +13°C° 0 mm 1 m/s 727 mmHg 71%
11:00 +15°C° 0 mm 2 m/s 727 mmHg 66%
12:00 +16°C° 0 mm 2 m/s 727 mmHg 61%
13:00 +17°C° 0 mm 2 m/s 727 mmHg 62%
14:00 +17°C° 0 mm 2 m/s 726 mmHg 62%
15:00 +17°C° 0 mm 2 m/s 726 mmHg 63%
16:00 +15°C° 0 mm 1 m/s 726 mmHg 69%
17:00 +14°C° 0 mm 1 m/s 726 mmHg 75%
18:00 +12°C° 0 mm 1 m/s 726 mmHg 82%
19:00 +12°C° 0 mm 1 m/s 726 mmHg 81%
20:00 +11°C° 0 mm 1 m/s 726 mmHg 81%
21:00 +11°C° 0 mm 1 m/s 726 mmHg 80%
22:00 +11°C° 0 mm 1 m/s 726 mmHg 81%
23:00 +11°C° 0 mm 1 m/s 725 mmHg 81%

Amanhã, 29 Janeiro, Sexta-feira

Tempo Temperatura Precipitação Vento Pressão Humidade
00:00 +10°C° 0 mm 1 m/s 725 mmHg 82%
01:00 +10°C° 0 mm 1 m/s 725 mmHg 82%
02:00 +10°C° 0 mm 1 m/s 724 mmHg 83%
03:00 +9°C° 0 mm 2 m/s 724 mmHg 84%
04:00 +9°C° 0 mm 2 m/s 724 mmHg 85%
05:00 +8°C° 0 mm 2 m/s 724 mmHg 86%
06:00 +8°C° 0 mm 2 m/s 724 mmHg 87%
07:00 +9°C° 0 mm 2 m/s 724 mmHg 84%
08:00 +10°C° 0 mm 2 m/s 724 mmHg 81%
09:00 +12°C° 0 mm 2 m/s 725 mmHg 78%
10:00 +13°C° 0 mm 3 m/s 725 mmHg 71%
11:00 +15°C° 0 mm 4 m/s 725 mmHg 63%
12:00 +18°C° 0 mm 4 m/s 725 mmHg 56%
13:00 +17°C° 0 mm 5 m/s 725 mmHg 54%
14:00 +17°C° 0 mm 5 m/s 724 mmHg 53%
15:00 +19°C° 0 mm 5 m/s 724 mmHg 51%
16:00 +17°C° 0 mm 4 m/s 724 mmHg 59%
17:00 +14°C° 0 mm 4 m/s 724 mmHg 66%
18:00 +12°C° 0 mm 3 m/s 724 mmHg 74%
19:00 +12°C° 0 mm 2 m/s 724 mmHg 75%
20:00 +10°C° 0 mm 2 m/s 724 mmHg 76%
21:00 +10°C° 0 mm 1 m/s 724 mmHg 77%
22:00 +10°C° 0 mm 1 m/s 723 mmHg 77%
23:00 +10°C° 0 mm 1 m/s 723 mmHg 77%

Depois de amanhã, 30 Janeiro, Sábado

Tempo Temperatura Precipitação Vento Pressão Humidade
00:00 +9°C° 0 mm 1 m/s 722 mmHg 77%
01:00 +9°C° 0 mm 1 m/s 721 mmHg 77%
02:00 +9°C° 0 mm 1 m/s 720 mmHg 77%
03:00 +9°C° 0 mm 1 m/s 719 mmHg 77%
04:00 +8°C° 0 mm 2 m/s 719 mmHg 79%
05:00 +8°C° 0 mm 2 m/s 718 mmHg 80%
06:00 +8°C° 0 mm 2 m/s 718 mmHg 82%
07:00 +9°C° 0.1 mm 3 m/s 717 mmHg 82%
08:00 +10°C° 0.1 mm 3 m/s 717 mmHg 83%
09:00 +10°C° 0.1 mm 4 m/s 717 mmHg 83%
10:00 +10°C° 0.1 mm 6 m/s 717 mmHg 71%
11:00 +11°C° 0.1 mm 8 m/s 717 mmHg 60%
12:00 +13°C° 0.1 mm 10 m/s 717 mmHg 49%
13:00 +12°C° 0 mm 10 m/s 716 mmHg 48%
14:00 +11°C° 0 mm 10 m/s 716 mmHg 48%
15:00 +11°C° 0 mm 11 m/s 716 mmHg 47%
16:00 +8°C° 0 mm 9 m/s 716 mmHg 54%
17:00 +8°C° 0 mm 7 m/s 716 mmHg 60%
18:00 +6°C° 0 mm 5 m/s 716 mmHg 66%
19:00 +6°C° 0 mm 4 m/s 716 mmHg 70%
20:00 +5°C° 0 mm 4 m/s 716 mmHg 73%
21:00 +4°C° 0 mm 4 m/s 717 mmHg 77%
22:00 +4°C° 0 mm 4 m/s 716 mmHg 78%
23:00 +4°C° 0 mm 4 m/s 716 mmHg 79%

31 Janeiro, Domingo

Tempo Temperatura Precipitação Vento Pressão Humidade
00:00 +3°C° 0 mm 4 m/s 716 mmHg 81%
01:00 +3°C° 0 mm 4 m/s 716 mmHg 82%
02:00 +3°C° 0 mm 4 m/s 715 mmHg 83%
03:00 +3°C° 0 mm 4 m/s 715 mmHg 85%
04:00 +3°C° 0 mm 4 m/s 715 mmHg 86%
05:00 +3°C° 0 mm 4 m/s 715 mmHg 86%
06:00 +3°C° 0 mm 4 m/s 715 mmHg 87%
07:00 +4°C° 0 mm 4 m/s 715 mmHg 83%
08:00 +5°C° 0 mm 4 m/s 716 mmHg 78%
09:00 +7°C° 0 mm 3 m/s 716 mmHg 74%
10:00 +8°C° 0 mm 4 m/s 716 mmHg 66%
11:00 +12°C° 0 mm 4 m/s 717 mmHg 58%
12:00 +14°C° 0 mm 5 m/s 717 mmHg 50%
13:00 +15°C° 0 mm 5 m/s 717 mmHg 50%
14:00 +15°C° 0 mm 6 m/s 716 mmHg 51%
15:00 +16°C° 0 mm 6 m/s 716 mmHg 51%
16:00 +14°C° 0 mm 6 m/s 716 mmHg 59%
17:00 +12°C° 0 mm 5 m/s 716 mmHg 67%
18:00 +10°C° 0 mm 5 m/s 716 mmHg 76%
19:00 +10°C° 0 mm 4 m/s 716 mmHg 78%
20:00 +10°C° 0 mm 4 m/s 716 mmHg 80%
21:00 +8°C° 0 mm 4 m/s 716 mmHg 83%
22:00 +8°C° 0 mm 5 m/s 716 mmHg 81%
23:00 +8°C° 0 mm 5 m/s 716 mmHg 78%

1 Fevereiro, Segunda-feira

Tempo Temperatura Precipitação Vento Pressão Humidade
00:00 +8°C° 0 mm 6 m/s 716 mmHg 76%
01:00 +8°C° 0 mm 6 m/s 716 mmHg 77%
02:00 +7°C° 0 mm 5 m/s 716 mmHg 78%
03:00 +7°C° 0 mm 5 m/s 716 mmHg 79%
04:00 +6°C° 0 mm 5 m/s 716 mmHg 81%
05:00 +6°C° 0 mm 4 m/s 717 mmHg 83%
06:00 +6°C° 0 mm 4 m/s 717 mmHg 85%
07:00 +7°C° 0 mm 4 m/s 718 mmHg 81%
08:00 +9°C° 0 mm 3 m/s 719 mmHg 78%
09:00 +9°C° 0 mm 3 m/s 719 mmHg 74%
10:00 +11°C° 0 mm 4 m/s 720 mmHg 65%
11:00 +13°C° 0 mm 5 m/s 720 mmHg 55%
12:00 +15°C° 0 mm 5 m/s 721 mmHg 46%
13:00 +15°C° 0 mm 5 m/s 721 mmHg 45%
14:00 +16°C° 0 mm 6 m/s 721 mmHg 44%
15:00 +16°C° 0 mm 6 m/s 720 mmHg 43%
16:00 +14°C° 0 mm 5 m/s 721 mmHg 52%
17:00 +12°C° 0 mm 4 m/s 721 mmHg 62%
18:00 +11°C° 0 mm 4 m/s 722 mmHg 71%
19:00 +10°C° 0 mm 3 m/s 722 mmHg 74%
20:00 +9°C° 0 mm 3 m/s 723 mmHg 77%
21:00 +9°C° 0 mm 2 m/s 723 mmHg 80%
22:00 +8°C° 0 mm 2 m/s 723 mmHg 80%
23:00 +8°C° 0 mm 2 m/s 723 mmHg 81%

2 Fevereiro, Terça-feira

Tempo Temperatura Precipitação Vento Pressão Humidade
00:00 +8°C° 0 mm 2 m/s 723 mmHg 81%
01:00 +9°C° 0 mm 1 m/s 723 mmHg 81%
02:00 +8°C° 0 mm 1 m/s 723 mmHg 82%
03:00 +8°C° 0 mm 1 m/s 723 mmHg 82%
04:00 +8°C° 0 mm 1 m/s 723 mmHg 83%
05:00 +8°C° 0 mm 1 m/s 723 mmHg 83%
06:00 +8°C° 0 mm 1 m/s 724 mmHg 84%
07:00 +9°C° 0 mm 1 m/s 724 mmHg 80%
08:00 +10°C° 0 mm 1 m/s 724 mmHg 76%
09:00 +10°C° 0 mm 0 m/s 725 mmHg 72%
10:00 +13°C° 0 mm 1 m/s 725 mmHg 67%
11:00 +14°C° 0 mm 1 m/s 725 mmHg 62%
12:00 +16°C° 0 mm 2 m/s 725 mmHg 57%
13:00 +16°C° 0 mm 2 m/s 724 mmHg 57%
14:00 +16°C° 0 mm 2 m/s 724 mmHg 57%
15:00 +17°C° 0 mm 3 m/s 723 mmHg 57%
16:00 +15°C° 0 mm 2 m/s 723 mmHg 66%
17:00 +13°C° 0 mm 1 m/s 723 mmHg 74%
18:00 +11°C° 0 mm 1 m/s 723 mmHg 83%
19:00 +11°C° 0 mm 1 m/s 723 mmHg 83%
20:00 +10°C° 0 mm 1 m/s 723 mmHg 84%
21:00 +10°C° 0 mm 1 m/s 723 mmHg 84%
22:00 +9°C° 0 mm 1 m/s 723 mmHg 84%
23:00 +9°C° 0 mm 1 m/s 723 mmHg 84%
Mostrar mais

Necessitamos do seu Consentimento

A Meteoprog e os seus Fornecedores de Serviços podem armazenar e aceder a dados pessoais como cookies, identificadores do dispositivo ou outras tecnologias semelhantes existentes no seu dispositivo e processar estes dados para personalizar conteúdos e anúncios, assim como funcionalidades nas redes sociais e análise de tráfego.

  • Armazenar e/ou aceder a informações no seu dispositivo

    Os cookies, identificadores do dispositivo ou outras informações podem ser armazenados ou acedidos no seu dispositivo, para os fins acima indicados.

  • Anúncios e conteúdos personalizados, medição de anúncios e conteúdos, dados sobre o público-alvo e desenvolvimento de produtos

    Os anúncios e os conteúdos podem ser personalizados com base num perfil. Podem ser adicionados dados adicionais para uma maior personalização dos anúncios e dos conteúdos. A eficácia dos anúncios e dos conteúdos pode ser medida. Podem ser obtidas informações sobre o público que visualizou os anúncios e os conteúdos. Estes dados podem ser usados para desenvolver ou melhorar sistemas, softwares ou a experiência do utilizador.

Ao clicar em "Eu concordo”, permitirá o uso de cookies, identificadores do dispositivo e web beacons mencionados ou outras tecnologias semelhantes. As configurações do navegador do seu dispositivo podem ser alteradas.

Para certos fins, podem ser invocados interesses legítimos ao invés de consentimento. Pode ler mais informação sobre este assunto na nossa Política de Privacidade e Cookies.